Showing default

COSMOS 1928, 18941

Orbit data source: Space-Track

COSMOS 1928, 18941 is a payload satellite owned by UNKS (CIS) in LEO that was launched on Fri, 11 Mar 1988 UTC via a KOSMOS 11K65M launch vehicle from the Plesetsk Missile And Space Complex (PKMTR). Payload-class satellites include a variety of spacecraft equipped with specific instruments for various scientific and technological missions. These include communications satellites like Starlink; space stations such as the ISS; scientific satellites like the Hubble; Earth observation satellites from companies like Planet Labs, Umbra, and HawkEye 360; GPS; miniature CubeSats for education and research; and military/defense satellites.

Loading next visibility...
Identifier
18941, 1988-016E
Orbit
LEO
Country
Flag of CISCIS
Related business
Manufacturer
NPO PM
Mission
Defense Communications
Bus & Motor
STRELA-1 11F625, Unknown motor
Mass
60 kg wet, 60 kg dry
Launch date (UTC)
1988-03-11 (38 years ago)
Launch vehicle
KOSMOS 11K65M
Launch site
Plesetsk Missile And Space Complex (PKMTR)
Object type
Payload
Rocket body
Debris
Shape & HBR
Sphere, 0.4 m
Radar Cross Section
0.588 m², Medium (>0.1 m² and < 1m²)

Expand to show TLE details & history
Last TLE update: 20 hours ago

TLE from 20 hours ago
0 COSMOS 1928
1 18941U 88016E   25348.77848549 -.00000019  00000-0 -21138-4 0  9991
2 18941  74.0060  89.6573 0010273 143.3969 336.2238 12.52890751633771
Epoch: 2025-12-14T18:41Z
TLE epoch observation values (Epoch: 2025-12-14T18:41:01.146Z)
Latitude
56.82499°
Longitude
-120.15081°
Altitude
1,454.187 km
Speed
7.144 km/s
True Right ascension
16h 15m 09s
True Declination
56° 40' 53"
Sunlit
Object was in daylight at epoch
Visualization orbit readout
Latitude
Unknown
Longitude
Unknown
Altitude
Unknown
Speed
Unknown
Apparent Right ascension
Unknown
Apparent Declination
Unknown
Sunlit
N/A
Visualization observer readout
Local Sidereal Time
13:19:00
Azimuth
Unknown
Elevation
Unknown
Doppler factor
Unknown
Orbital elements
Apogee altitude
1,458.303 km
Perigee altitude
1,442.218 km
Semi-major axis
7,828.398 km
Eccentricity
0.00103
Inclination
74.006°
RAAN
89.6573°
Arg. of periapsis
143.3969°
True anomaly
336.17628°
Mean anomaly
336.2238°
Eccentric anomaly
336.20005°
Mean motion
3.13353 °/min
Orbital period
114.89 mins
BSTAR
-0.000021138
Loading maneuver chart data...
Computing Atmospheric mass density...
Loading historical data...
Loading historical data...
Loading historical data...
Loading historical data...
Loading historical data...
Loading historical data...
Loading historical data...

Documentation

Showing up to 5 results
|